• Em Portugal
  • Lista de países
  • Para 7 dias
  • Temperatura da água
  • Mapas de satélite
  • Mapa do tempo
  • Widgets de tempo
  • user-avatar
    Iniciar Sessão

    Previsão horária em Jurkow

    Hoje, 21 Abril, Sábado

    Tempo Temperatura Precipitação Vento Pressão Humidade
    00:00 +16°C° 0 mm 3 m/s 741 mmHg 66%
    01:00 +16°C° 0 mm 3 m/s 740 mmHg 65%
    02:00 +16°C° 0 mm 3 m/s 740 mmHg 68%
    03:00 +14°C° 0 mm 3 m/s 740 mmHg 70%
    04:00 +14°C° 0 mm 3 m/s 740 mmHg 73%
    05:00 +16°C° 0 mm 2 m/s 740 mmHg 72%
    06:00 +17°C° 0 mm 2 m/s 740 mmHg 71%
    07:00 +18°C° 0 mm 2 m/s 740 mmHg 70%
    08:00 +19°C° 0 mm 2 m/s 740 mmHg 64%
    09:00 +21°C° 0 mm 3 m/s 740 mmHg 59%
    10:00 +24°C° 0 mm 3 m/s 740 mmHg 53%
    11:00 +24°C° 0 mm 3 m/s 740 mmHg 51%
    12:00 +25°C° 0 mm 3 m/s 740 mmHg 49%
    13:00 +25°C° 0 mm 4 m/s 740 mmHg 46%
    14:00 +25°C° 0 mm 4 m/s 740 mmHg 46%
    15:00 +25°C° 0 mm 4 m/s 740 mmHg 47%
    16:00 +23°C° 0 mm 4 m/s 740 mmHg 47%
    17:00 +21°C° 0 mm 4 m/s 740 mmHg 53%
    18:00 +19°C° 0 mm 3 m/s 740 mmHg 59%
    19:00 +17°C° 0 mm 2 m/s 740 mmHg 65%
    20:00 +15°C° 0 mm 2 m/s 740 mmHg 67%
    21:00 +14°C° 0 mm 2 m/s 740 mmHg 70%
    22:00 +12°C° 0 mm 2 m/s 741 mmHg 72%
    23:00 +12°C° 0 mm 1 m/s 741 mmHg 72%

    Amanhã, 22 Abril, Domingo

    Tempo Temperatura Precipitação Vento Pressão Humidade
    00:00 +11°C° 0 mm 1 m/s 741 mmHg 73%
    01:00 +10°C° 0 mm 1 m/s 741 mmHg 73%
    02:00 +10°C° 0 mm 1 m/s 741 mmHg 73%
    03:00 +9°C° 0 mm 1 m/s 741 mmHg 72%
    04:00 +9°C° 0 mm 1 m/s 740 mmHg 72%
    05:00 +10°C° 0 mm 1 m/s 740 mmHg 68%
    06:00 +11°C° 0 mm 1 m/s 740 mmHg 64%
    07:00 +12°C° 0 mm 1 m/s 741 mmHg 61%
    08:00 +14°C° 0 mm 1 m/s 741 mmHg 55%
    09:00 +16°C° 0 mm 1 m/s 740 mmHg 50%
    10:00 +19°C° 0 mm 1 m/s 740 mmHg 44%
    11:00 +21°C° 0 mm 1 m/s 740 mmHg 41%
    12:00 +22°C° 0 mm 1 m/s 740 mmHg 39%
    13:00 +23°C° 0 mm 1 m/s 739 mmHg 36%
    14:00 +23°C° 0 mm 1 m/s 739 mmHg 37%
    15:00 +23°C° 0 mm 1 m/s 739 mmHg 38%
    16:00 +23°C° 0 mm 1 m/s 738 mmHg 38%
    17:00 +21°C° 0 mm 1 m/s 738 mmHg 45%
    18:00 +18°C° 0 mm 2 m/s 738 mmHg 52%
    19:00 +16°C° 0 mm 2 m/s 737 mmHg 59%
    20:00 +15°C° 0 mm 2 m/s 737 mmHg 61%
    21:00 +14°C° 0 mm 2 m/s 737 mmHg 64%
    22:00 +14°C° 0 mm 2 m/s 737 mmHg 66%
    23:00 +14°C° 0 mm 2 m/s 737 mmHg 66%

    Depois de amanhã, 23 Abril, Segunda-feira

    Tempo Temperatura Precipitação Vento Pressão Humidade
    00:00 +14°C° 0 mm 2 m/s 737 mmHg 67%
    01:00 +14°C° 0 mm 2 m/s 737 mmHg 68%
    02:00 +14°C° 0,3 mm 2 m/s 736 mmHg 73%
    03:00 +14°C° 0,3 mm 2 m/s 736 mmHg 78%
    04:00 +14°C° 0,3 mm 2 m/s 736 mmHg 82%
    05:00 +15°C° 0,1 mm 2 m/s 735 mmHg 81%
    06:00 +16°C° 0,1 mm 3 m/s 735 mmHg 80%
    07:00 +17°C° 0,1 mm 3 m/s 735 mmHg 78%
    08:00 +19°C° 0,1 mm 4 m/s 735 mmHg 73%
    09:00 +20°C° 0,1 mm 4 m/s 735 mmHg 67%
    10:00 +22°C° 0,1 mm 5 m/s 735 mmHg 62%
    11:00 +21°C° 0,5 mm 5 m/s 735 mmHg 65%
    12:00 +20°C° 0,5 mm 5 m/s 735 mmHg 69%
    13:00 +19°C° 0,5 mm 4 m/s 735 mmHg 73%
    14:00 +19°C° 0,9 mm 4 m/s 734 mmHg 76%
    15:00 +19°C° 0,9 mm 4 m/s 734 mmHg 79%
    16:00 +18°C° 0,9 mm 4 m/s 734 mmHg 82%
    17:00 +17°C° 0,3 mm 4 m/s 734 mmHg 84%
    18:00 +16°C° 0,3 mm 3 m/s 734 mmHg 87%
    19:00 +16°C° 0,3 mm 3 m/s 734 mmHg 90%
    20:00 +14°C° 0,1 mm 3 m/s 735 mmHg 91%
    21:00 +13°C° 0,1 mm 3 m/s 735 mmHg 92%
    22:00 +12°C° 0,1 mm 3 m/s 736 mmHg 93%
    23:00 +12°C° 0,1 mm 3 m/s 736 mmHg 93%

    24 Abril, Terça-feira

    Tempo Temperatura Precipitação Vento Pressão Humidade
    00:00 +11°C° 0,1 mm 3 m/s 736 mmHg 94%
    01:00 +10°C° 0,1 mm 3 m/s 737 mmHg 94%
    02:00 +10°C° 0 mm 3 m/s 737 mmHg 95%
    03:00 +9°C° 0 mm 3 m/s 738 mmHg 95%
    04:00 +8°C° 0 mm 3 m/s 738 mmHg 95%
    05:00 +9°C° 0 mm 3 m/s 739 mmHg 91%
    06:00 +10°C° 0 mm 3 m/s 739 mmHg 87%
    07:00 +10°C° 0 mm 4 m/s 739 mmHg 83%
    08:00 +12°C° 0 mm 4 m/s 739 mmHg 75%
    09:00 +13°C° 0 mm 4 m/s 739 mmHg 67%
    10:00 +14°C° 0 mm 5 m/s 739 mmHg 59%
    11:00 +15°C° 0 mm 5 m/s 739 mmHg 56%
    12:00 +16°C° 0 mm 5 m/s 738 mmHg 53%
    13:00 +17°C° 0 mm 5 m/s 738 mmHg 49%
    14:00 +19°C° 0 mm 5 m/s 737 mmHg 50%
    15:00 +19°C° 0 mm 5 m/s 737 mmHg 51%
    16:00 +19°C° 0 mm 5 m/s 736 mmHg 51%
    17:00 +17°C° 0 mm 5 m/s 736 mmHg 57%
    18:00 +17°C° 0 mm 4 m/s 736 mmHg 63%
    19:00 +14°C° 0 mm 3 m/s 736 mmHg 69%
    20:00 +14°C° 0 mm 3 m/s 736 mmHg 71%
    21:00 +13°C° 0 mm 3 m/s 736 mmHg 73%
    22:00 +12°C° 0 mm 3 m/s 736 mmHg 75%
    23:00 +12°C° 0 mm 3 m/s 736 mmHg 76%

    25 Abril, Quarta-feira

    Tempo Temperatura Precipitação Vento Pressão Humidade
    00:00 +11°C° 0 mm 3 m/s 736 mmHg 77%
    01:00 +11°C° 0 mm 3 m/s 736 mmHg 79%
    02:00 +10°C° 0 mm 3 m/s 736 mmHg 79%
    03:00 +10°C° 0 mm 3 m/s 736 mmHg 80%
    04:00 +10°C° 0 mm 3 m/s 736 mmHg 80%
    05:00 +11°C° 0 mm 3 m/s 736 mmHg 77%
    06:00 +12°C° 0 mm 3 m/s 736 mmHg 74%
    07:00 +14°C° 0 mm 4 m/s 736 mmHg 72%
    08:00 +15°C° 0 mm 4 m/s 736 mmHg 67%
    09:00 +17°C° 0 mm 5 m/s 736 mmHg 63%
    10:00 +19°C° 0 mm 5 m/s 736 mmHg 59%
    11:00 +20°C° 0,1 mm 5 m/s 735 mmHg 55%
    12:00 +21°C° 0,1 mm 6 m/s 735 mmHg 52%
    13:00 +22°C° 0,1 mm 6 m/s 734 mmHg 49%
    14:00 +21°C° 0,2 mm 6 m/s 734 mmHg 54%
    15:00 +20°C° 0,2 mm 5 m/s 733 mmHg 59%
    16:00 +19°C° 0,2 mm 5 m/s 733 mmHg 64%
    17:00 +17°C° 0,3 mm 5 m/s 733 mmHg 70%
    18:00 +17°C° 0,3 mm 4 m/s 732 mmHg 76%
    19:00 +16°C° 0,3 mm 3 m/s 732 mmHg 82%
    20:00 +14°C° 0 mm 3 m/s 732 mmHg 85%
    21:00 +13°C° 0 mm 3 m/s 733 mmHg 89%
    22:00 +12°C° 0 mm 3 m/s 733 mmHg 93%
    23:00 +11°C° 0 mm 3 m/s 733 mmHg 94%

    26 Abril, Quinta-feira

    Tempo Temperatura Precipitação Vento Pressão Humidade
    00:00 +12°C° 0 mm 2 m/s 733 mmHg 95%
    01:00 +10°C° 0 mm 2 m/s 733 mmHg 96%
    02:00 +10°C° 0 mm 2 m/s 734 mmHg 95%
    03:00 +10°C° 0 mm 2 m/s 734 mmHg 95%
    04:00 +10°C° 0 mm 2 m/s 734 mmHg 95%
    05:00 +10°C° 0 mm 3 m/s 734 mmHg 92%
    06:00 +11°C° 0 mm 3 m/s 734 mmHg 89%
    07:00 +11°C° 0 mm 3 m/s 734 mmHg 86%
    08:00 +12°C° 0,3 mm 4 m/s 734 mmHg 80%
    09:00 +13°C° 0,3 mm 5 m/s 734 mmHg 73%
    10:00 +14°C° 0,3 mm 6 m/s 735 mmHg 67%
    11:00 +14°C° 0,2 mm 7 m/s 735 mmHg 62%
    12:00 +13°C° 0,2 mm 8 m/s 735 mmHg 57%
    13:00 +13°C° 0,2 mm 9 m/s 735 mmHg 52%
    14:00 +12°C° 0,1 mm 9 m/s 735 mmHg 52%
    15:00 +12°C° 0,1 mm 8 m/s 736 mmHg 51%
    16:00 +12°C° 0,1 mm 8 m/s 736 mmHg 51%
    17:00 +10°C° 0,1 mm 7 m/s 736 mmHg 57%
    18:00 +9°C° 0,1 mm 6 m/s 737 mmHg 63%
    19:00 +7°C° 0,1 mm 5 m/s 737 mmHg 70%
    20:00 +7°C° 0 mm 5 m/s 738 mmHg 73%
    21:00 +6°C° 0 mm 5 m/s 739 mmHg 76%
    22:00 +5°C° 0 mm 5 m/s 739 mmHg 80%
    23:00 +5°C° 0 mm 5 m/s 740 mmHg 82%
    Mostrar mais